^^

..:: Storico WU ::..




Lo storico viene creato da WUnderground con i dati che la stazione Meteomincio invia al loro server. L' aggiornamento viene fatto ogni 5 minuti circa, tuttavia possono esserci intervalli pił ampi a causa di errori, interruzioni di servizio o problemi nell' invio tramite FTP.


Storico stazione MeteoMincio
Giorno Sommario per Maggio 04, 2022 Unità:  Inglese    Metrico   Entrambi
Giorno Settimana Mese Anno
  Max: Min: Media:
Temperatura: 75.2 °F 51.8 °F 62.8 °F
Dew Point: 59 °F 48.2 °F 53.4 °F
Umidità: 92% 44% 74%
Velocità vento: 11.2mph 0mph 3.4mph
Raffica: 16.2mph - -
Direzione- - WSW
Pressione: 30.1 in 30 in -
Precipitazioni: 0 in    
 
 
Tabulato Dati per Maggio 04, 2022
Ora Temperatura Dew Point Pressione Direzione Velocità vento Raffica Umidità Intensità pioggia (oraria) Info solare Situazione
00:04 59 °F 51.8 °F 30 in WSW 3.1 mph 3.7 mph 78% 0 in 0.00 W/m2 unknown
00:09 57.2 °F 51.8 °F 30 in SW 3.7 mph 5 mph 79% 0 in 0.00 W/m2 unknown
00:14 57.2 °F 51.8 °F 30 in SW 3.7 mph 6.2 mph 79% 0 in 0.00 W/m2 unknown
00:19 57.2 °F 51.8 °F 30 in WSW 3.1 mph 6.2 mph 78% 0 in 0.00 W/m2 unknown
00:24 57.2 °F 51.8 °F 30 in WSW 3.1 mph 6.2 mph 79% 0 in 0.00 W/m2 unknown
00:29 57.2 °F 51.8 °F 30 in WSW 3.1 mph 5 mph 80% 0 in 0.00 W/m2 unknown
00:34 57.2 °F 51.8 °F 30 in WSW 3.1 mph 3.7 mph 81% 0 in 0.00 W/m2 unknown
00:39 57.2 °F 50 °F 30 in WSW 3.1 mph 3.7 mph 81% 0 in 0.00 W/m2 unknown
00:44 57.2 °F 50 °F 30 in WSW 3.1 mph 3.7 mph 82% 0 in 0.00 W/m2 unknown
00:49 57.2 °F 51.8 °F 30 in WSW 3.1 mph 3.7 mph 82% 0 in 0.00 W/m2 unknown
00:50 55.4 °F 50 °F 30 in WSW 3.1 mph 3.7 mph 82% 0 in 0.00 W/m2 unknown
00:59 55.4 °F 50 °F 30 in WSW 3.7 mph 5 mph 83% 0 in 0.00 W/m2 unknown
01:04 55.4 °F 50 °F 30 in WSW 3.7 mph 5 mph 83% 0 in 0.00 W/m2 unknown
01:09 55.4 °F 50 °F 30 in WSW 3.7 mph 5 mph 83% 0 in 0.00 W/m2 unknown
01:14 55.4 °F 50 °F 30 in WSW 3.7 mph 5 mph 83% 0 in 0.00 W/m2 unknown
01:19 55.4 °F 51.8 °F 30 in WSW 4.3 mph 6.8 mph 84% 0 in 0.00 W/m2 unknown
01:24 55.4 °F 51.8 °F 30 in WSW 5 mph 6.8 mph 84% 0 in 0.00 W/m2 unknown
01:29 55.4 °F 51.8 °F 30 in WSW 5 mph 6.8 mph 84% 0 in 0.00 W/m2 unknown
01:34 55.4 °F 51.8 °F 30 in WSW 3.1 mph 6.2 mph 84% 0 in 0.00 W/m2 unknown
01:39 55.4 °F 51.8 °F 30 in WSW 3.1 mph 5 mph 84% 0 in 0.00 W/m2 unknown
01:44 55.4 °F 51.8 °F 30 in West 3.1 mph 5 mph 85% 0 in 0.00 W/m2 unknown
01:49 55.4 °F 51.8 °F 30 in West 3.7 mph 5 mph 85% 0 in 0.00 W/m2 unknown
01:54 55.4 °F 51.8 °F 30 in WSW 3.7 mph 3.7 mph 85% 0 in 0.00 W/m2 unknown
01:59 55.4 °F 51.8 °F 30 in WSW 3.1 mph 3.7 mph 85% 0 in 0.00 W/m2 unknown
02:04 55.4 °F 51.8 °F 30 in WSW 3.1 mph 3.7 mph 85% 0 in 0.00 W/m2 unknown
02:09 55.4 °F 51.8 °F 30 in WSW 2.5 mph 3.7 mph 84% 0 in 0.00 W/m2 unknown
02:14 55.4 °F 51.8 °F 30 in WSW 1.9 mph 3.7 mph 84% 0 in 0.00 W/m2 unknown
02:19 55.4 °F 51.8 °F 30 in WSW 3.1 mph 5 mph 85% 0 in 0.00 W/m2 unknown
02:24 55.4 °F 51.8 °F 30 in WSW 3.1 mph 5 mph 85% 0 in 0.00 W/m2 unknown
02:29 55.4 °F 51.8 °F 30 in WSW 3.1 mph 3.7 mph 85% 0 in 0.00 W/m2 unknown
02:34 55.4 °F 51.8 °F 30 in WSW 3.1 mph 3.7 mph 85% 0 in 0.00 W/m2 unknown
02:39 55.4 °F 51.8 °F 30 in WSW 2.5 mph 3.7 mph 85% 0 in 0.00 W/m2 unknown
02:44 55.4 °F 51.8 °F 30 in West 2.5 mph 3.7 mph 86% 0 in 0.00 W/m2 unknown
02:49 55.4 °F 50 °F 30 in WSW 3.1 mph 3.7 mph 86% 0 in 0.00 W/m2 unknown
02:54 55.4 °F 50 °F 30 in WSW 3.1 mph 3.7 mph 86% 0 in 0.00 W/m2 unknown
02:59 55.4 °F 51.8 °F 30 in WSW 3.1 mph 3.7 mph 86% 0 in 0.00 W/m2 unknown
03:04 55.4 °F 51.8 °F 30 in WSW 3.1 mph 5 mph 86% 0 in 0.00 W/m2 unknown
03:09 55.4 °F 51.8 °F 30 in WSW 3.1 mph 5 mph 87% 0 in 0.00 W/m2 unknown
03:14 55.4 °F 51.8 °F 30 in WSW 3.1 mph 5 mph 87% 0 in 0.00 W/m2 unknown
03:19 55.4 °F 51.8 °F 30 in WSW 3.1 mph 3.7 mph 87% 0 in 0.00 W/m2 unknown
03:24 55.4 °F 51.8 °F 30 in WSW 2.5 mph 3.7 mph 87% 0 in 0.00 W/m2 unknown
03:29 55.4 °F 50 °F 30 in WSW 2.5 mph 3.7 mph 87% 0 in 0.00 W/m2 unknown
03:34 55.4 °F 51.8 °F 30 in WSW 2.5 mph 3.7 mph 88% 0 in 0.00 W/m2 unknown
03:39 55.4 °F 51.8 °F 30 in WSW 2.5 mph 3.7 mph 88% 0 in 0.00 W/m2 unknown
03:44 53.6 °F 51.8 °F 30 in WSW 2.5 mph 3.7 mph 88% 0 in 0.00 W/m2 unknown
03:49 53.6 °F 50 °F 30 in WSW 3.1 mph 3.7 mph 88% 0 in 0.00 W/m2 unknown
03:54 53.6 °F 50 °F 30 in SW 2.5 mph 3.7 mph 88% 0 in 0.00 W/m2 unknown
03:59 53.6 °F 50 °F 30 in WSW 1.9 mph 3.7 mph 88% 0 in 0.00 W/m2 unknown
04:00 53.6 °F 50 °F 30 in WSW 1.2 mph 3.1 mph 88% 0 in 0.00 W/m2 unknown
04:09 53.6 °F 51.8 °F 30 in WSW 2.5 mph 3.7 mph 89% 0 in 0.00 W/m2 unknown
04:13 53.6 °F 50 °F 30 in WSW 2.5 mph 3.7 mph 89% 0 in 0.00 W/m2 unknown
04:17 53.6 °F 50 °F 30 in WSW 2.5 mph 3.7 mph 89% 0 in 0.00 W/m2 unknown
04:23 53.6 °F 50 °F 30 in WSW 2.5 mph 3.7 mph 90% 0 in 0.00 W/m2 unknown
04:25 53.6 °F 50 °F 30 in West 1.9 mph 3.7 mph 90% 0 in 0.00 W/m2 unknown
04:33 53.6 °F 50 °F 30 in WSW 1.9 mph 3.1 mph 90% 0 in 0.00 W/m2 unknown
04:37 53.6 °F 50 °F 30 in WSW 1.9 mph 3.7 mph 90% 0 in 0.00 W/m2 unknown
04:44 53.6 °F 50 °F 30 in WSW 2.5 mph 3.7 mph 90% 0 in 0.00 W/m2 unknown
04:48 53.6 °F 50 °F 30 in SW 2.5 mph 3.7 mph 91% 0 in 0.00 W/m2 unknown
04:53 53.6 °F 50 °F 30 in SW 2.5 mph 3.7 mph 91% 0 in 0.00 W/m2 unknown
04:59 53.6 °F 50 °F 30 in WSW 2.5 mph 3.7 mph 91% 0 in 0.00 W/m2 unknown
05:04 53.6 °F 50 °F 30 in WSW 3.1 mph 3.7 mph 91% 0 in 0.00 W/m2 unknown
05:09 53.6 °F 50 °F 30 in WSW 3.1 mph 3.7 mph 91% 0 in 0.00 W/m2 unknown
05:14 53.6 °F 50 °F 30 in WSW 3.1 mph 3.7 mph 91% 0 in 0.00 W/m2 unknown
05:19 51.8 °F 50 °F 30 in WSW 2.5 mph 3.7 mph 91% 0 in 0.00 W/m2 unknown
05:24 51.8 °F 50 °F 30 in WSW 2.5 mph 3.7 mph 91% 0 in 0.00 W/m2 unknown
05:29 51.8 °F 50 °F 30 in WSW 2.5 mph 3.7 mph 91% 0 in 0.00 W/m2 unknown
05:34 51.8 °F 50 °F 30 in WSW 2.5 mph 3.7 mph 92% 0 in 0.00 W/m2 unknown
05:39 51.8 °F 50 °F 30 in WSW 2.5 mph 3.7 mph 92% 0 in 0.00 W/m2 unknown
05:44 51.8 °F 50 °F 30 in WSW 2.5 mph 3.7 mph 92% 0 in 0.00 W/m2 unknown
05:49 51.8 °F 50 °F 30 in WSW 3.1 mph 3.7 mph 92% 0 in 0.00 W/m2 unknown
05:54 51.8 °F 50 °F 30 in WSW 3.1 mph 3.7 mph 92% 0 in 0.00 W/m2 unknown
05:59 51.8 °F 50 °F 30 in WSW 3.1 mph 3.7 mph 92% 0 in 0.00 W/m2 unknown
06:04 51.8 °F 50 °F 30 in WSW 3.1 mph 3.7 mph 92% 0 in 0.00 W/m2 unknown
06:09 51.8 °F 50 °F 30 in WSW 3.1 mph 3.7 mph 91% 0 in 5.00 W/m2 unknown
06:14 51.8 °F 48.2 °F 30 in WSW 3.1 mph 3.7 mph 91% 0 in 7.00 W/m2 unknown
06:19 51.8 °F 50 °F 30 in WSW 3.1 mph 3.7 mph 91% 0 in 11.00 W/m2 unknown
06:24 51.8 °F 50 °F 30 in WSW 2.5 mph 3.7 mph 91% 0 in 14.00 W/m2 unknown
06:29 51.8 °F 50 °F 30 in WSW 3.1 mph 3.7 mph 91% 0 in 16.00 W/m2 unknown
06:34 51.8 °F 50 °F 30 in WSW 3.1 mph 3.7 mph 91% 0 in 21.00 W/m2 unknown
06:39 51.8 °F 50 °F 30 in WSW 3.1 mph 5 mph 91% 0 in 26.00 W/m2 unknown
06:44 51.8 °F 50 °F 30 in WSW 3.1 mph 5 mph 91% 0 in 39.00 W/m2 unknown
06:49 51.8 °F 50 °F 30 in WSW 3.1 mph 5 mph 91% 0 in 44.00 W/m2 unknown
06:54 51.8 °F 50 °F 30 in WSW 3.1 mph 5 mph 91% 0 in 44.00 W/m2 unknown
06:59 51.8 °F 50 °F 30 in West 3.1 mph 3.7 mph 91% 0 in 37.00 W/m2 unknown
07:04 51.8 °F 48.2 °F 30 in WSW 2.5 mph 3.7 mph 90% 0 in 42.00 W/m2 unknown
07:09 51.8 °F 50 °F 30 in WSW 2.5 mph 3.7 mph 90% 0 in 54.00 W/m2 unknown
07:14 51.8 °F 50 °F 30 in WSW 2.5 mph 3.7 mph 90% 0 in 69.00 W/m2 unknown
07:19 51.8 °F 50 °F 30 in WSW 2.5 mph 3.7 mph 91% 0 in 88.00 W/m2 unknown
07:24 53.6 °F 50 °F 30 in WSW 2.5 mph 3.7 mph 91% 0 in 113.00 W/m2 unknown
07:29 53.6 °F 50 °F 30 in WSW 2.5 mph 3.7 mph 91% 0 in 171.00 W/m2 unknown
07:34 53.6 °F 51.8 °F 30 in WSW 2.5 mph 3.7 mph 90% 0 in 171.00 W/m2 unknown
07:39 55.4 °F 51.8 °F 30 in WSW 2.5 mph 3.7 mph 90% 0 in 167.00 W/m2 unknown
07:44 55.4 °F 51.8 °F 30 in WSW 3.7 mph 3.7 mph 90% 0 in 179.00 W/m2 unknown
07:49 55.4 °F 51.8 °F 30 in WSW 3.1 mph 5 mph 89% 0 in 192.00 W/m2 unknown
07:54 55.4 °F 51.8 °F 30 in West 3.1 mph 5 mph 89% 0 in 250.00 W/m2 unknown
07:59 57.2 °F 53.6 °F 30 in West 3.7 mph 3.7 mph 89% 0 in 229.00 W/m2 unknown
08:04 57.2 °F 53.6 °F 30 in West 3.7 mph 6.2 mph 88% 0 in 192.00 W/m2 unknown
08:09 57.2 °F 53.6 °F 30 in WSW 5 mph 6.8 mph 88% 0 in 301.00 W/m2 unknown
08:14 57.2 °F 53.6 °F 30 in West 5 mph 6.8 mph 88% 0 in 302.00 W/m2 unknown
08:19 57.2 °F 53.6 °F 30 in West 5.6 mph 8.1 mph 88% 0 in 325.00 W/m2 unknown
08:24 59 °F 53.6 °F 30 in West 5.6 mph 8.1 mph 88% 0 in 329.00 W/m2 unknown
08:29 59 °F 53.6 °F 30 in WNW 5 mph 8.1 mph 87% 0 in 316.00 W/m2 unknown
08:34 59 °F 53.6 °F 30 in West 3.7 mph 6.2 mph 86% 0 in 376.00 W/m2 unknown
08:39 59 °F 55.4 °F 30 in WNW 4.3 mph 5 mph 86% 0 in 394.00 W/m2 unknown
08:44 59 °F 55.4 °F 30 in WNW 3.7 mph 5 mph 85% 0 in 403.00 W/m2 unknown
08:49 59 °F 55.4 °F 30 in WNW 3.7 mph 6.2 mph 86% 0 in 390.00 W/m2 unknown
08:54 60.8 °F 55.4 °F 30 in West 3.7 mph 6.2 mph 84% 0 in 348.00 W/m2 unknown
08:59 60.8 °F 55.4 °F 30 in WSW 3.7 mph 5 mph 84% 0 in 394.00 W/m2 unknown
09:04 60.8 °F 55.4 °F 30 in WSW 1.9 mph 5 mph 84% 0 in 343.00 W/m2 unknown
09:09 60.8 °F 55.4 °F 30 in WSW 3.1 mph 3.7 mph 84% 0 in 359.00 W/m2 unknown
09:14 60.8 °F 55.4 °F 30 in WSW 3.1 mph 3.7 mph 83% 0 in 359.00 W/m2 unknown
09:19 60.8 °F 55.4 °F 30 in West 3.1 mph 3.7 mph 83% 0 in 353.00 W/m2 unknown
09:24 60.8 °F 55.4 °F 30 in WSW 2.5 mph 3.7 mph 83% 0 in 418.00 W/m2 unknown
09:29 60.8 °F 55.4 °F 30 in West 3.1 mph 3.7 mph 83% 0 in 376.00 W/m2 unknown
09:34 60.8 °F 55.4 °F 30 in West 1.9 mph 3.7 mph 82% 0 in 345.00 W/m2 unknown
09:39 60.8 °F 55.4 °F 30 in WSW 2.5 mph 3.7 mph 81% 0 in 408.00 W/m2 unknown
09:44 62.6 °F 55.4 °F 30 in West 2.5 mph 3.7 mph 81% 0 in 445.00 W/m2 unknown
09:49 62.6 °F 57.2 °F 30 in WSW 3.1 mph 3.7 mph 81% 0 in 443.00 W/m2 unknown
09:54 62.6 °F 55.4 °F 30 in SW 2.5 mph 3.7 mph 79% 0 in 455.00 W/m2 unknown
09:59 62.6 °F 55.4 °F 30 in WSW 2.5 mph 5 mph 79% 0 in 501.00 W/m2 unknown
10:04 62.6 °F 55.4 °F 30 in WNW 2.5 mph 5 mph 78% 0 in 510.00 W/m2 unknown
10:09 64.4 °F 57.2 °F 30 in West 2.5 mph 5 mph 77% 0 in 680.00 W/m2 unknown
10:14 64.4 °F 57.2 °F 30 in WNW 2.5 mph 3.7 mph 76% 0 in 698.00 W/m2 unknown
10:19 64.4 °F 55.4 °F 30 in West 5 mph 6.8 mph 73% 0 in 698.00 W/m2 unknown
10:24 64.4 °F 55.4 °F 30 in West 5 mph 6.8 mph 73% 0 in 601.00 W/m2 unknown
10:29 64.4 °F 55.4 °F 30 in West 3.7 mph 6.8 mph 73% 0 in 589.00 W/m2 unknown
10:34 66.2 °F 57.2 °F 30 in WNW 3.7 mph 5 mph 73% 0 in 601.00 W/m2 unknown
10:39 66.2 °F 57.2 °F 30 in West 3.7 mph 5 mph 73% 0 in 541.00 W/m2 unknown
10:44 66.2 °F 55.4 °F 30 in West 3.7 mph 5 mph 71% 0 in 554.00 W/m2 unknown
10:49 66.2 °F 57.2 °F 30 in West 5.6 mph 8.1 mph 71% 0 in 554.00 W/m2 unknown
10:54 66.2 °F 57.2 °F 30 in WSW 5.6 mph 8.1 mph 73% 0 in 645.00 W/m2 unknown
10:59 66.2 °F 57.2 °F 30 in SSW 3.7 mph 8.1 mph 73% 0 in 788.00 W/m2 unknown
11:04 68 °F 57.2 °F 30 in WSW 4.3 mph 6.2 mph 70% 0 in 828.00 W/m2 unknown
11:09 68 °F 57.2 °F 30 in SW 4.3 mph 6.2 mph 70% 0 in 824.00 W/m2 unknown
11:14 68 °F 57.2 °F 30 in SW 3.1 mph 6.2 mph 70% 0 in 802.00 W/m2 unknown
11:19 68 °F 57.2 °F 30 in South 1.9 mph 6.8 mph 70% 0 in 817.00 W/m2 unknown
11:24 69.8 °F 57.2 °F 30 in SSW 2.5 mph 6.8 mph 69% 0 in 807.00 W/m2 unknown
11:34 69.8 °F 57.2 °F 30 in West 3.1 mph 5 mph 65% 0 in 874.00 W/m2 unknown
11:39 69.8 °F 57.2 °F 30 in WSW 3.1 mph 3.7 mph 67% 0 in 847.00 W/m2 unknown
11:44 69.8 °F 57.2 °F 30 in WSW 2.5 mph 3.7 mph 65% 0 in 923.00 W/m2 unknown
11:49 69.8 °F 57.2 °F 30 in SE 2.5 mph 3.7 mph 64% 0 in 919.00 W/m2 unknown
11:54 71.6 °F 59 °F 30 in NNE 2.5 mph 3.7 mph 65% 0 in 758.00 W/m2 unknown
11:59 71.6 °F 59 °F 30 in WNW 2.5 mph 3.7 mph 65% 0 in 657.00 W/m2 unknown
12:04 71.6 °F 59 °F 30 in WSW 3.7 mph 6.2 mph 63% 0 in 744.00 W/m2 unknown
12:09 71.6 °F 57.2 °F 30 in WSW 5.6 mph 6.8 mph 62% 0 in 652.00 W/m2 unknown
12:14 71.6 °F 57.2 °F 30 in WSW 5 mph 6.8 mph 62% 0 in 670.00 W/m2 unknown
12:19 69.8 °F 57.2 °F 30 in West 3.7 mph 6.8 mph 61% 0 in 698.00 W/m2 unknown
12:24 71.6 °F 57.2 °F 30 in South 3.1 mph 6.8 mph 62% 0 in 847.00 W/m2 unknown
12:29 71.6 °F 57.2 °F 30 in WSW 3.7 mph 6.8 mph 62% 0 in 833.00 W/m2 unknown
12:34 71.6 °F 57.2 °F 30 in WSW 3.7 mph 6.8 mph 61% 0 in 833.00 W/m2 unknown
12:39 71.6 °F 57.2 °F 30 in SW 4.3 mph 6.8 mph 58% 0 in 789.00 W/m2 unknown
12:44 71.6 °F 55.4 °F 30 in SSW 3.1 mph 6.8 mph 58% 0 in 824.00 W/m2 unknown
12:49 71.6 °F 55.4 °F 30 in West 2.5 mph 3.7 mph 57% 0 in 819.00 W/m2 unknown
12:54 71.6 °F 53.6 °F 30 in WNW 3.1 mph 3.7 mph 53% 0 in 721.00 W/m2 unknown
12:59 73.4 °F 55.4 °F 30 in NE 3.1 mph 5 mph 56% 0 in 489.00 W/m2 unknown
13:04 73.4 °F 55.4 °F 30 in NE 3.1 mph 5 mph 55% 0 in 329.00 W/m2 unknown
13:09 73.4 °F 55.4 °F 30 in ESE 4.3 mph 5 mph 53% 0 in 589.00 W/m2 unknown
13:14 73.4 °F 55.4 °F 30 in ESE 4.3 mph 6.2 mph 52% 0 in 846.00 W/m2 unknown
13:19 73.4 °F 55.4 °F 30 in SSE 3.7 mph 6.2 mph 53% 0 in 877.00 W/m2 unknown
13:24 73.4 °F 55.4 °F 30 in SSW 4.3 mph 6.2 mph 52% 0 in 877.00 W/m2 unknown
13:29 73.4 °F 53.6 °F 30 in SSW 4.3 mph 6.2 mph 51% 0 in 875.00 W/m2 unknown
13:30 73.4 °F 51.8 °F 30 in SW 5 mph 6.2 mph 48% 0 in 837.00 W/m2 unknown
13:39 75.2 °F 55.4 °F 30 in West 5 mph 8.1 mph 50% 0 in 888.00 W/m2 unknown
13:44 75.2 °F 53.6 °F 30 in WSW 5 mph 8.1 mph 49% 0 in 881.00 W/m2 unknown
13:49 73.4 °F 53.6 °F 30 in SSW 4.3 mph 8.1 mph 50% 0 in 881.00 W/m2 unknown
13:54 73.4 °F 53.6 °F 30 in SSW 5 mph 6.8 mph 49% 0 in 861.00 W/m2 unknown
13:59 75.2 °F 55.4 °F 30 in SW 3.7 mph 6.2 mph 50% 0 in 863.00 W/m2 unknown
14:04 75.2 °F 55.4 °F 30 in South 2.5 mph 6.2 mph 50% 0 in 882.00 W/m2 unknown
14:09 75.2 °F 53.6 °F 30 in SSW 4.3 mph 6.8 mph 48% 0 in 886.00 W/m2 unknown
14:14 75.2 °F 53.6 °F 30 in SW 5 mph 6.8 mph 49% 0 in 886.00 W/m2 unknown
14:19 75.2 °F 53.6 °F 30 in SSW 3.7 mph 6.8 mph 49% 0 in 889.00 W/m2 unknown
14:24 75.2 °F 53.6 °F 30 in South 3.7 mph 6.8 mph 47% 0 in 824.00 W/m2 unknown
14:29 75.2 °F 53.6 °F 30 in NW 1.9 mph 3.7 mph 49% 0 in 508.00 W/m2 unknown
14:34 75.2 °F 53.6 °F 30 in SW 4.3 mph 6.2 mph 47% 0 in 378.00 W/m2 unknown
14:39 75.2 °F 51.8 °F 30 in SW 4.3 mph 6.2 mph 45% 0 in 292.00 W/m2 unknown
14:44 73.4 °F 51.8 °F 30 in South 3.1 mph 6.2 mph 45% 0 in 313.00 W/m2 unknown
14:49 73.4 °F 50 °F 30 in SSW 2.5 mph 3.7 mph 44% 0 in 316.00 W/m2 unknown
14:54 73.4 °F 51.8 °F 30 in South 1.9 mph 3.7 mph 46% 0 in 316.00 W/m2 unknown
14:59 73.4 °F 53.6 °F 30 in SSW 3.7 mph 5 mph 48% 0 in 309.00 W/m2 unknown
15:04 73.4 °F 53.6 °F 30 in WSW 3.7 mph 6.2 mph 48% 0 in 302.00 W/m2 unknown
15:09 73.4 °F 53.6 °F 30 in West 3.7 mph 6.2 mph 48% 0 in 301.00 W/m2 unknown
15:14 73.4 °F 53.6 °F 30 in West 4.3 mph 6.2 mph 49% 0 in 288.00 W/m2 unknown
15:19 73.4 °F 53.6 °F 30 in WSW 4.3 mph 6.2 mph 49% 0 in 271.00 W/m2 unknown
15:24 73.4 °F 53.6 °F 30 in WSW 3.7 mph 6.2 mph 50% 0 in 246.00 W/m2 unknown
15:29 73.4 °F 53.6 °F 30 in WSW 3.7 mph 5 mph 50% 0 in 227.00 W/m2 unknown
15:34 73.4 °F 53.6 °F 30 in WSW 5 mph 6.2 mph 52% 0 in 207.00 W/m2 unknown
15:39 73.4 °F 55.4 °F 30 in WSW 5.6 mph 8.1 mph 53% 0 in 190.00 W/m2 unknown
15:44 73.4 °F 55.4 °F 30 in WSW 6.2 mph 8.1 mph 54% 0 in 178.00 W/m2 unknown
15:49 73.4 °F 55.4 °F 30 in SW 6.2 mph 8.1 mph 54% 0 in 171.00 W/m2 unknown
15:54 73.4 °F 55.4 °F 30 in SW 6.2 mph 8.1 mph 54% 0 in 160.00 W/m2 unknown
15:59 73.4 °F 55.4 °F 30 in SW 6.2 mph 8.1 mph 53% 0 in 155.00 W/m2 unknown
16:04 71.6 °F 53.6 °F 30 in SW 5.6 mph 8.1 mph 53% 0 in 149.00 W/m2 unknown
16:09 71.6 °F 53.6 °F 30 in SW 6.2 mph 8.7 mph 53% 0 in 148.00 W/m2 unknown
16:14 71.6 °F 53.6 °F 30 in WSW 6.2 mph 8.7 mph 52% 0 in 155.00 W/m2 unknown
16:19 71.6 °F 53.6 °F 30 in WSW 6.2 mph 8.1 mph 53% 0 in 165.00 W/m2 unknown
16:24 71.6 °F 53.6 °F 30 in WSW 6.8 mph 11.2 mph 54% 0 in 171.00 W/m2 unknown
16:29 71.6 °F 55.4 °F 30 in SW 8.1 mph 11.8 mph 58% 0 in 171.00 W/m2 unknown
16:34 71.6 °F 55.4 °F 30 in SW 11.2 mph 16.2 mph 59% 0 in 169.00 W/m2 unknown
16:39 69.8 °F 55.4 °F 30 in WSW 11.2 mph 16.2 mph 62% 0 in 165.00 W/m2 unknown
16:44 69.8 °F 57.2 °F 30 in WSW 9.9 mph 16.2 mph 63% 0 in 179.00 W/m2 unknown
16:49 69.8 °F 57.2 °F 30 in WSW 9.9 mph 14.3 mph 63% 0 in 200.00 W/m2 unknown
16:54 69.8 °F 57.2 °F 30 in WSW 8.1 mph 13 mph 64% 0 in 213.00 W/m2 unknown
16:59 69.8 °F 57.2 °F 30 in WSW 8.1 mph 11.8 mph 64% 0 in 213.00 W/m2 unknown
17:04 68 °F 57.2 °F 30 in SW 9.3 mph 11.8 mph 65% 0 in 207.00 W/m2 unknown
17:09 69.8 °F 55.4 °F 30 in SW 8.1 mph 11.8 mph 64% 0 in 197.00 W/m2 unknown
17:14 69.8 °F 55.4 °F 30 in SSW 8.1 mph 11.8 mph 64% 0 in 229.00 W/m2 unknown
17:19 69.8 °F 57.2 °F 30 in SSW 9.3 mph 16.2 mph 65% 0 in 237.00 W/m2 unknown
17:24 69.8 °F 57.2 °F 30 in SSW 8.7 mph 16.2 mph 65% 0 in 237.00 W/m2 unknown
17:29 68 °F 57.2 °F 30 in South 9.3 mph 14.3 mph 66% 0 in 216.00 W/m2 unknown
17:34 68 °F 57.2 °F 30 in SSW 9.9 mph 14.3 mph 66% 0 in 223.00 W/m2 unknown
17:39 68 °F 57.2 °F 30 in SSW 8.7 mph 14.9 mph 66% 0 in 258.00 W/m2 unknown
17:44 68 °F 57.2 °F 30 in South 8.7 mph 14.9 mph 66% 0 in 258.00 W/m2 unknown
17:49 69.8 °F 57.2 °F 30 in SSW 8.1 mph 14.9 mph 66% 0 in 489.00 W/m2 unknown
17:54 69.8 °F 57.2 °F 30 in SSE 6.8 mph 11.8 mph 66% 0 in 482.00 W/m2 unknown
17:59 69.8 °F 57.2 °F 30 in SSW 6.2 mph 11.8 mph 64% 0 in 482.00 W/m2 unknown
18:04 69.8 °F 57.2 °F 30 in SSW 5.6 mph 8.7 mph 63% 0 in 424.00 W/m2 unknown
18:09 71.6 °F 57.2 °F 30 in WSW 4.3 mph 8.1 mph 62% 0 in 439.00 W/m2 unknown
18:14 69.8 °F 57.2 °F 30 in WSW 4.3 mph 6.2 mph 61% 0 in 439.00 W/m2 unknown
18:19 71.6 °F 57.2 °F 30 in WSW 4.3 mph 6.2 mph 61% 0 in 410.00 W/m2 unknown
18:24 71.6 °F 57.2 °F 30 in West 3.1 mph 6.2 mph 62% 0 in 387.00 W/m2 unknown
18:29 71.6 °F 57.2 °F 30 in NW 3.7 mph 5 mph 62% 0 in 355.00 W/m2 unknown
18:34 71.6 °F 57.2 °F 30 in West 3.1 mph 5 mph 62% 0 in 299.00 W/m2 unknown
18:39 69.8 °F 57.2 °F 30 in West 3.1 mph 5 mph 62% 0 in 283.00 W/m2 unknown
18:44 69.8 °F 57.2 °F 30 in West 4.3 mph 6.2 mph 63% 0 in 258.00 W/m2 unknown
18:49 69.8 °F 57.2 °F 30 in West 5 mph 6.2 mph 63% 0 in 197.00 W/m2 unknown
18:54 69.8 °F 57.2 °F 30 in West 3.1 mph 6.2 mph 64% 0 in 216.00 W/m2 unknown
18:59 69.8 °F 57.2 °F 30 in West 5 mph 6.2 mph 63% 0 in 211.00 W/m2 unknown
19:04 69.8 °F 57.2 °F 30 in WNW 5 mph 6.2 mph 63% 0 in 186.00 W/m2 unknown
19:09 69.8 °F 57.2 °F 30 in NNW 4.3 mph 6.8 mph 63% 0 in 183.00 W/m2 unknown
19:14 69.8 °F 55.4 °F 30 in NNW 5 mph 6.8 mph 61% 0 in 169.00 W/m2 unknown
19:19 69.8 °F 55.4 °F 30 in NW 4.3 mph 6.8 mph 60% 0 in 144.00 W/m2 unknown
19:24 69.8 °F 55.4 °F 30 in NNW 3.7 mph 6.8 mph 60% 0 in 77.00 W/m2 unknown
19:29 69.8 °F 55.4 °F 30 in NNW 3.1 mph 6.2 mph 60% 0 in 63.00 W/m2 unknown
19:34 69.8 °F 55.4 °F 30 in NW 5 mph 6.2 mph 61% 0 in 51.00 W/m2 unknown
19:39 68 °F 55.4 °F 30 in NW 5 mph 6.2 mph 61% 0 in 44.00 W/m2 unknown
19:44 68 °F 53.6 °F 30 in NW 3.1 mph 6.2 mph 61% 0 in 33.00 W/m2 unknown
19:49 68 °F 53.6 °F 30 in NNW 2.5 mph 3.7 mph 61% 0 in 33.00 W/m2 unknown
19:54 68 °F 53.6 °F 30 in NNW 1.9 mph 3.7 mph 62% 0 in 33.00 W/m2 unknown
19:59 68 °F 53.6 °F 30 in NNW 1.9 mph 3.7 mph 62% 0 in 32.00 W/m2 unknown
20:04 68 °F 53.6 °F 30 in NNW 1.2 mph 3.7 mph 62% 0 in 28.00 W/m2 unknown
20:09 68 °F 53.6 °F 30 in NNW 1.9 mph 3.7 mph 63% 0 in 23.00 W/m2 unknown
20:14 66.2 °F 53.6 °F 30 in NW 1.2 mph 3.1 mph 64% 0 in 18.00 W/m2 unknown
20:19 66.2 °F 53.6 °F 30 in WNW 1.2 mph 2.5 mph 64% 0 in 12.00 W/m2 unknown
20:24 66.2 °F 53.6 °F 30 in WNW 0.6 mph 1.9 mph 65% 0 in 9.00 W/m2 unknown
20:29 66.2 °F 53.6 °F 30 in NW 0.6 mph 2.5 mph 66% 0 in 0.00 W/m2 unknown
20:34 66.2 °F 53.6 °F 30 in NW 1.2 mph 2.5 mph 67% 0 in 0.00 W/m2 unknown
20:39 64.4 °F 53.6 °F 30 in WNW 1.9 mph 2.5 mph 66% 0 in 0.00 W/m2 unknown
20:44 64.4 °F 53.6 °F 30 in WNW 1.2 mph 2.5 mph 66% 0 in 0.00 W/m2 unknown
20:49 64.4 °F 53.6 °F 30 in Calm   1.9 mph 67% 0 in 0.00 W/m2 unknown
20:54 64.4 °F 53.6 °F 30 in Calm     68% 0 in 0.00 W/m2 unknown
20:59 64.4 °F 53.6 °F 30 in Calm     68% 0 in 0.00 W/m2 unknown
21:04 64.4 °F 53.6 °F 30 in Calm     69% 0 in 0.00 W/m2 unknown
21:09 64.4 °F 53.6 °F 30 in Calm     70% 0 in 0.00 W/m2 unknown
21:14 62.6 °F 53.6 °F 30 in Calm     72% 0 in 0.00 W/m2 unknown
21:19 62.6 °F 53.6 °F 30 in Calm     73% 0 in 0.00 W/m2 unknown
21:24 62.6 °F 53.6 °F 30 in SSW 1.2 mph 2.5 mph 74% 0 in 0.00 W/m2 unknown
21:29 60.8 °F 53.6 °F 30 in SSW 1.2 mph 2.5 mph 76% 0 in 0.00 W/m2 unknown
21:34 60.8 °F 53.6 °F 30 in Calm   1.2 mph 75% 0 in 0.00 W/m2 unknown
21:39 60.8 °F 53.6 °F 30 in Calm   1.2 mph 75% 0 in 0.00 W/m2 unknown
21:44 60.8 °F 53.6 °F 30 in SSW 0.6 mph 1.2 mph 76% 0 in 0.00 W/m2 unknown
21:49 60.8 °F 53.6 °F 30 in SSW 0.6 mph 1.2 mph 77% 0 in 0.00 W/m2 unknown
21:54 60.8 °F 53.6 °F 30 in SW 1.2 mph 1.2 mph 76% 0 in 0.00 W/m2 unknown
21:59 60.8 °F 51.8 °F 30 in SW 1.2 mph 2.5 mph 76% 0 in 0.00 W/m2 unknown
22:04 60.8 °F 51.8 °F 30 in SW 1.2 mph 1.9 mph 76% 0 in 0.00 W/m2 unknown
22:09 60.8 °F 53.6 °F 30 in SW 1.2 mph 1.2 mph 77% 0 in 0.00 W/m2 unknown
22:14 60.8 °F 51.8 °F 30 in Calm   1.2 mph 77% 0 in 0.00 W/m2 unknown
22:19 59 °F 53.6 °F 30 in Calm     78% 0 in 0.00 W/m2 unknown
22:24 59 °F 53.6 °F 30 in Calm   1.2 mph 78% 0 in 0.00 W/m2 unknown
22:29 59 °F 53.6 °F 30 in SW 0.6 mph 1.2 mph 79% 0 in 0.00 W/m2 unknown
22:34 59 °F 53.6 °F 30 in SSE 1.2 mph 2.5 mph 80% 0 in 0.00 W/m2 unknown
22:39 59 °F 51.8 °F 30 in East 1.2 mph 2.5 mph 81% 0 in 0.00 W/m2 unknown
22:44 57.2 °F 51.8 °F 30 in East 1.2 mph 2.5 mph 82% 0 in 0.00 W/m2 unknown
22:49 57.2 °F 51.8 °F 30 in Calm   1.9 mph 82% 0 in 0.00 W/m2 unknown
22:54 59 °F 51.8 °F 30 in East 0.6 mph 1.2 mph 81% 0 in 0.00 W/m2 unknown
22:59 59 °F 51.8 °F 30 in East 1.2 mph 1.2 mph 81% 0 in 0.00 W/m2 unknown
23:04 59 °F 51.8 °F 30 in Calm   1.2 mph 81% 0 in 0.00 W/m2 unknown
23:09 57.2 °F 51.8 °F 30 in Calm   1.2 mph 82% 0 in 0.00 W/m2 unknown
23:14 57.2 °F 51.8 °F 30.1 in Calm     82% 0 in 0.00 W/m2 unknown
23:19 57.2 °F 51.8 °F 30.1 in ENE 1.9 mph 3.7 mph 83% 0 in 0.00 W/m2 unknown
23:24 57.2 °F 51.8 °F 30.1 in ENE 1.9 mph 3.1 mph 83% 0 in 0.00 W/m2 unknown
23:29 57.2 °F 51.8 °F 30.1 in ENE 1.2 mph 2.5 mph 83% 0 in 0.00 W/m2 unknown
23:34 57.2 °F 51.8 °F 30.1 in Calm   1.2 mph 83% 0 in 0.00 W/m2 unknown
23:39 57.2 °F 51.8 °F 30.1 in ENE 0.6 mph 1.2 mph 83% 0 in 0.00 W/m2 unknown
23:44 57.2 °F 51.8 °F 30.1 in Calm   1.2 mph 83% 0 in 0.00 W/m2 unknown
23:49 57.2 °F 51.8 °F 30.1 in Calm   1.2 mph 83% 0 in 0.00 W/m2 unknown
23:54 57.2 °F 51.8 °F 30.1 in Calm     83% 0 in 0.00 W/m2 unknown
23:59 57.2 °F 51.8 °F 30.1 in Calm   1.2 mph 83% 0 in 0.00 W/m2 unknown
Stazione Meteorologica MeteoMincio Rivalta s/M (MN)
Con i complimenti di Weather Underground - 4 mb



METEO PILLOLE
Il tornado più violento degli Stati Uniti
Missouri - Illinois e Indiana
Il 18 marzo 1925 un tornado percorre oltre 350 chilometri attraverso tre Stati, uccidendo 689 persone e ferendone quasi 200.
Share

Non seguire questo link o sarai bannato dal sito!